Vorticity
2 -22 12 11 -0 8 7 6 7 6 6 6 6 7 6 5 4 4 3 1 2 3 5 7 11 7 5 6 6 7 6 7 6 6 6 6 6 7 6 6 6 6 6
8 11 -4 18 8 8 9 8 6 6 5 6 7 7 7 6 4 4 4 3 2 3 5 8 10 7 6 6 7 6 6 6 7 6 6 6 6 5 5 7 6 6 6
33 -2 -14 -9 18 12 6 8 7 7 6 7 7 6 6 6 5 5 5 3 3 3 5 8 10 7 6 6 6 6 6 6 5 4 4 7 5 6 6 7 7 7 7
19 13 3 -13 -12 17 15 9 8 8 8 8 8 6 5 7 8 6 4 3 4 3 5 9 9 7 6 6 6 6 6 3 3 5 6 6 7 7 9 6 7 7 8
1 28 -12 -12 3 -1 -5 7 15 9 8 10 9 8 7 5 6 4 5 5 4 4 6 10 9 7 7 6 6 6 3 2 3 4 4 4 5 6 8 7 7 7 8
11 7 24 0 3 4 -4 18 10 10 9 9 9 8 7 7 8 8 6 5 4 6 6 10 9 7 7 6 6 5 2 3 2 3 3 4 6 8 9 9 7 6 6
23 2 14 32 -9 -13 -2 -11 5 13 11 8 8 9 7 6 8 7 5 6 7 5 7 11 9 7 7 6 7 3 3 3 3 2 4 7 9 11 10 10 9 9 8
27 22 2 6 17 4 3 -17 -9 15 12 9 7 13 9 7 8 7 8 7 6 7 10 10 8 8 6 7 4 3 2 3 3 4 7 10 11 10 10 9 9 9 10
20 26 18 4 6 24 15 5 -19 -22 14 10 8 6 9 7 6 6 9 9 9 9 10 9 9 7 7 5 3 3 3 3 4 8 11 12 10 10 10 10 9 8 7
17 23 34 10 7 5 -2 19 17 -5 -7 -17 -5 10 3 4 5 6 11 10 11 11 9 9 8 7 5 4 3 3 3 5 10 13 13 11 9 8 5 4 4 5 5
22 8 23 49 -2 6 4 16 17 12 -7 14 25 7 14 3 7 8 13 13 11 9 9 9 7 5 5 4 3 4 7 12 13 11 8 6 5 6 6 5 4 4 5
32 22 17 8 22 16 17 11 12 13 22 26 16 7 14 -4 1 -4 11 13 9 9 8 7 5 5 4 3 5 10 13 10 9 8 7 7 6 4 4 6 6 5 5
5 20 22 20 7 28 19 16 16 6 13 16 13 11 -9 -7 -3 10 20 12 10 8 6 5 5 4 4 8 12 11 9 9 7 6 6 4 5 6 6 4 6 7 6
17 12 27 22 19 25 25 15 21 18 16 8 9 3 12 11 19 23 19 12 7 6 6 5 4 5 10 12 9 7 8 7 6 4 5 6 6 5 6 6 6 6 7
14 10 4 21 9 5 28 28 25 15 11 8 8 4 8 4 28 20 6 7 6 6 5 5 7 12 9 7 8 7 6 5 5 5 6 5 6 6 5 5 6 7 10
29 2 13 10 21 5 13 19 16 13 12 14 6 7 18 32 16 7 7 6 4 7 7 8 8 8 7 8 6 6 5 6 6 6 6 7 5 4 5 8 12 13 13
6 18 6 5 30 10 11 15 13 4 8 9 13 16 20 14 9 7 7 5 8 5 6 10 10 7 6 6 6 6 6 6 6 6 6 5 5 7 10 12 13 12 14
8 17 12 9 23 12 3 6 17 21 20 14 18 16 11 9 7 6 4 5 6 8 9 6 5 7 6 6 5 6 6 6 6 6 6 7 9 10 11 11 13 15 14
13 5 20 14 21 10 3 10 10 3 -2 9 -7 6 9 7 8 9 8 9 7 5 6 5 7 6 6 6 6 7 6 6 5 7 9 9 11 11 13 16 14 12 12
14 5 19 11 13 10 11 15 18 17 24 18 24 14 7 6 6 6 6 5 5 6 6 6 5 6 7 7 8 7 3 4 9 11 14 13 11 14 13 12 12 14 16
21 7 16 18 6 5 8 17 13 12 14 13 8 6 6 5 5 6 5 4 6 6 6 6 7 7 9 8 7 7 8 9 12 13 12 12 14 14 14 16 17 15 12
29 16 5 20 12 7 9 16 15 14 9 7 6 6 5 6 4 3 5 6 6 7 6 5 9 10 8 7 8 10 13 14 12 12 13 15 16 13 11 10 9 9 9
19 21 11 19 11 9 11 11 -0 -1 -7 -9 -1 5 6 3 4 5 5 5 6 5 6 12 11 8 9 10 12 13 12 11 11 13 14 12 9 9 9 10 10 11 11
24 22 23 11 13 10 17 13 18 20 17 13 8 5 3 3 4 5 4 4 4 7 13 11 10 10 10 11 12 11 10 11 13 12 10 9 9 10 10 12 14 14 12
36 21 24 11 12 18 12 8 8 9 6 5 5 5 6 5 5 5 5 7 9 16 13 9 7 9 12 12 10 9 10 12 11 8 7 8 9 10 12 13 12 11 13
33 27 16 9 14 13 11 8 5 7 6 7 6 6 5 5 6 7 8 16 16 12 9 7 8 11 13 11 9 10 12 12 8 7 8 9 10 12 11 9 10 10 11
Height
3106 3109 3110 3114 3115 3117 3121 3121 3123 3125 3128 3131 3134 3137 3140 3142 3144 3147 3148 3149 3148 3149 3149 3149 3150 3150 3149 3148 3148 3148 3148 3149 3148 3147 3146 3145 3144 3142 3141 3140 3139 3137 3135
3097 3103 3106 3107 3111 3113 3115 3116 3118 3120 3123 3127 3130 3132 3134 3137 3139 3142 3143 3144 3145 3145 3145 3146 3146 3147 3146 3146 3146 3146 3146 3146 3146 3146 3144 3143 3143 3140 3139 3137 3136 3135 3133
3087 3093 3096 3099 3103 3107 3108 3111 3113 3115 3118 3121 3124 3126 3128 3131 3134 3137 3139 3140 3141 3141 3141 3142 3143 3143 3143 3143 3143 3143 3143 3143 3143 3143 3143 3141 3140 3138 3136 3134 3133 3131 3129
3079 3085 3090 3092 3096 3101 3103 3106 3108 3110 3113 3115 3118 3120 3124 3127 3130 3131 3132 3135 3136 3136 3137 3138 3139 3139 3139 3140 3140 3140 3140 3140 3140 3140 3140 3138 3137 3135 3134 3131 3129 3127 3126
3072 3076 3080 3086 3093 3094 3098 3099 3101 3104 3106 3110 3112 3115 3117 3119 3122 3123 3127 3129 3130 3131 3132 3133 3134 3135 3135 3136 3136 3136 3136 3136 3137 3136 3136 3135 3133 3132 3130 3127 3125 3123 3121
3062 3068 3072 3078 3083 3086 3089 3092 3095 3097 3101 3104 3107 3109 3112 3115 3117 3119 3121 3122 3124 3125 3126 3128 3130 3130 3131 3132 3132 3132 3132 3132 3132 3132 3131 3130 3129 3127 3125 3124 3122 3120 3117
3051 3057 3061 3066 3072 3076 3081 3085 3089 3090 3094 3098 3100 3103 3105 3108 3110 3112 3114 3116 3118 3119 3120 3123 3124 3125 3126 3127 3128 3128 3128 3128 3127 3126 3125 3123 3122 3120 3119 3118 3116 3115 3115
3040 3045 3051 3056 3060 3065 3072 3077 3081 3081 3086 3091 3094 3097 3099 3102 3104 3106 3108 3109 3110 3112 3115 3116 3118 3120 3121 3122 3123 3123 3122 3122 3121 3120 3119 3117 3115 3113 3112 3111 3109 3108 3108
3034 3036 3040 3045 3051 3056 3061 3069 3073 3075 3081 3084 3088 3091 3094 3097 3099 3100 3101 3102 3105 3107 3109 3111 3113 3114 3116 3117 3117 3117 3117 3116 3115 3113 3112 3110 3108 3107 3105 3104 3103 3101 3100
3027 3030 3032 3037 3041 3047 3052 3056 3063 3069 3074 3077 3081 3085 3089 3090 3091 3093 3094 3096 3099 3101 3103 3105 3107 3109 3110 3111 3111 3111 3110 3109 3108 3107 3106 3104 3102 3100 3099 3098 3096 3094 3092
3020 3022 3024 3027 3032 3036 3042 3047 3052 3058 3063 3066 3071 3076 3081 3082 3085 3087 3088 3090 3092 3095 3097 3099 3101 3103 3104 3104 3105 3104 3103 3102 3101 3100 3099 3098 3096 3095 3093 3091 3089 3086 3084
3014 3015 3017 3019 3022 3026 3031 3036 3041 3048 3050 3054 3058 3067 3073 3074 3076 3081 3081 3084 3086 3090 3092 3093 3095 3097 3098 3098 3098 3097 3096 3096 3095 3094 3093 3092 3091 3089 3087 3084 3081 3078 3074
3008 3007 3009 3012 3015 3017 3021 3027 3032 3037 3041 3047 3053 3059 3062 3067 3066 3073 3072 3076 3081 3085 3085 3086 3088 3090 3091 3091 3091 3090 3090 3089 3089 3088 3087 3085 3084 3081 3079 3076 3073 3070 3066
3004 3003 3003 3004 3006 3008 3012 3018 3024 3028 3034 3040 3046 3051 3053 3059 3060 3068 3068 3070 3076 3077 3078 3080 3082 3084 3084 3084 3084 3083 3083 3083 3082 3081 3080 3078 3076 3074 3071 3068 3064 3060 3056
2999 2999 2998 2999 3000 3003 3005 3010 3015 3022 3029 3034 3039 3043 3046 3049 3054 3061 3060 3064 3068 3071 3072 3073 3075 3077 3077 3078 3078 3077 3077 3076 3075 3074 3072 3070 3068 3065 3062 3059 3054 3050 3045
2992 2993 2993 2994 2995 2997 3001 3006 3012 3018 3022 3026 3030 3035 3039 3043 3045 3053 3055 3059 3061 3066 3066 3067 3068 3070 3071 3071 3072 3071 3070 3069 3067 3066 3064 3062 3059 3056 3052 3048 3043 3039 3034
2985 2985 2986 2988 2990 2993 2996 3002 3007 3011 3016 3021 3025 3029 3032 3036 3042 3046 3049 3053 3055 3058 3060 3061 3062 3064 3065 3065 3065 3064 3062 3062 3060 3058 3056 3053 3050 3046 3042 3037 3033 3029 3024
2977 2978 2979 2981 2983 2988 2991 2996 3000 3004 3009 3015 3019 3023 3028 3033 3037 3042 3046 3048 3050 3053 3055 3056 3056 3057 3057 3058 3057 3057 3055 3054 3052 3049 3047 3044 3040 3036 3031 3027 3024 3020 3015
2968 2970 2972 2974 2976 2980 2984 2989 2989 2995 3001 3010 3013 3019 3025 3029 3033 3037 3039 3042 3046 3047 3049 3050 3050 3050 3051 3050 3050 3048 3047 3045 3043 3040 3037 3033 3029 3026 3022 3018 3014 3011 3006
2960 2962 2964 2967 2970 2975 2978 2982 2987 2992 2997 3003 3008 3015 3019 3023 3028 3031 3034 3037 3040 3042 3043 3043 3043 3044 3044 3043 3042 3040 3038 3036 3034 3030 3026 3023 3020 3016 3012 3008 3003 3000 2997
2950 2956 2958 2960 2964 2969 2974 2977 2983 2988 2994 3000 3005 3010 3015 3019 3023 3026 3029 3032 3034 3035 3035 3036 3037 3037 3036 3035 3033 3031 3029 3027 3024 3021 3018 3014 3009 3005 3002 2998 2995 2991 2989
2943 2944 2952 2954 2958 2963 2968 2974 2979 2985 2991 2997 3002 3006 3010 3015 3019 3021 3024 3026 3027 3028 3029 3029 3029 3029 3028 3026 3024 3023 3020 3017 3015 3012 3008 3005 3002 2998 2995 2991 2987 2984 2981
2935 2938 2941 2949 2954 2959 2965 2969 2974 2980 2986 2991 2997 3002 3006 3009 3012 3015 3018 3019 3021 3021 3021 3021 3021 3020 3020 3018 3017 3014 3011 3008 3005 3003 3000 2998 2994 2991 2988 2984 2980 2977 2974
2930 2932 2937 2942 2949 2955 2960 2966 2971 2976 2981 2987 2992 2997 3000 3004 3007 3009 3011 3012 3013 3014 3014 3013 3014 3013 3011 3009 3007 3004 3002 3000 2997 2995 2993 2990 2987 2984 2981 2977 2974 2970 2967
2927 2928 2933 2938 2944 2949 2955 2960 2966 2972 2977 2982 2986 2991 2994 2998 3000 3002 3004 3006 3006 3006 3006 3007 3006 3005 3003 3000 2998 2996 2994 2992 2991 2989 2987 2984 2980 2977 2974 2970 2966 2963 2959
2922 2925 2930 2936 2941 2944 2950 2956 2961 2967 2972 2977 2981 2985 2988 2990 2992 2995 2997 2997 2998 2999 2999 2998 2997 2996 2995 2993 2992 2989 2988 2987 2985 2982 2979 2976 2973 2970 2966 2962 2959 2955 2952